{"data":{"norad_id":55657,"intl_designator":"2023-021AF","name":"STARLINK-5328","alt_names":[],"object_type":"PAYLOAD","status":"ACTIVE","operator":null,"country":"US","launch_date":"2023-02-17","launch_site_code":"AFWTR","launch_vehicle":null,"mission":null,"orbit_class":"UNKNOWN","rcs_meters":null,"size_class":null,"mass_kg":null,"dimensions":null,"purposes":["comms"],"wikipedia_slug":null,"has_3d_model":false,"image_url":null,"decayed_at":null,"tle_current":{"epoch":"2026-09-20T15:35:16.229760Z","epoch_age_seconds":90150,"freshness":"FRESH","line1":"1 55657U 23021AF  26263.64949340  .00000583  00000+0  56676-4 0  9993","line2":"2 55657  70.0004  33.0537 0003159 269.0537  91.0260 14.98329206198484","mean_motion":14.98329206,"eccentricity":0.0003159,"inclination_deg":70.0004,"raan_deg":33.0537,"arg_perigee_deg":269.0537,"mean_anomaly_deg":91.026,"bstar":5.6676e-5,"rev_number":19848,"period_min":96.10705005506,"perigee_km":569.8627796151,"apogee_km":574.25391303491,"semimajor_km":6950.195346325,"source":"CELESTRAK","updated_at":"2026-09-21T09:00:33.286962Z"}}}